• Join FlightAware (Why Join?)
  • Login
  • US Flag 
03:08AM EDT


 

Airport Tracker/Info


-or-


 

Live Flight TrackerFlight Track Log ✈ DAL268 ✈ 20-Jul-2013 ✈ KSFO - KJFK

Flight Track Log - Related Links

Times and Time Zones

All times are in EDT time to prevent confusion due to time zone crossing. See the DAL268 flight status page for this flight to view local times or setup timezone preferences in your user account.

Time Position Orientation Groundspeed Altitude Reporting Facility
EDT Latitude Longitude Course Direction KTS MPH feet Rate Location/Type
02:18PM 37.6160 -122.3820 112° Southeast 10 12  Level FlightAware
02:22PM 37.6150 -122.3810 142° Southeast 14 16  Level FlightAware
02:24PM 37.6120 -122.3830 208° Southwest 14 16  Level FlightAware
02:27PM 37.8311 -122.1523 38° Northeast  Level FlightAware Approximate
02:28PM 37.9288 -122.0545 38° Northeast  Level FlightAware Approximate
02:29PM 38.0180 -121.9531 35° Northeast  Level FlightAware Approximate
02:30PM 38.1204 -121.8630 38° Northeast  Level FlightAware Approximate
02:30PM 37.6070 -122.3840 38° Northeast 13 15  Level FlightAware
02:33PM 37.8604 -122.1230 38° Northeast  Level FlightAware Approximate
02:33PM 37.6060 -122.3830 38° Northeast  Level FlightAware
02:34PM 37.9582 -122.0252 38° Northeast  Level FlightAware Approximate
02:34PM 37.6060 -122.3820 90° East 9 10  Level FlightAware
02:36PM 37.6070 -122.3810 38° Northeast 33 38 120 Level FlightAware
02:36PM 37.6170 -122.3740 29° Northeast 150 173 480 Level FlightAware
02:36PM 37.6238 -122.3690 30° Northeast 163 188 300 2,160 Climbing FlightAware ADS-B
02:36PM 37.6298 -122.3650 28° Northeast 161 185 700 2,520 Climbing FlightAware ADS-B
02:36PM 37.6329 -122.3620 37° Northeast 163 188 900 2,160 Climbing FlightAware ADS-B
02:36PM 37.6366 -122.3590 33° Northeast 167 192 1,100 2,100 Climbing FlightAware ADS-B
02:37PM 37.6410 -122.3540 42° Northeast 174 200 1,400 1,800 Climbing FlightAware ADS-B
02:37PM 37.6438 -122.3500 49° Northeast 179 206 1,500 2,400 Climbing FlightAware ADS-B
02:37PM 37.6529 -122.3380 46° Northeast 182 209 2,200 2,280 Climbing FlightAware ADS-B
02:37PM 37.6621 -122.3260 46° Northeast 190 219 2,700 1,500 Climbing FlightAware ADS-B
02:37PM 37.6718 -122.3140 44° Northeast 205 236 3,000 1,200 Climbing FlightAware ADS-B
02:38PM 37.6822 -122.3000 47° Northeast 222 255 3,300 1,320 Climbing FlightAware ADS-B
02:38PM 37.6939 -122.2850 45° Northeast 236 272 3,700 1,500 Climbing FlightAware ADS-B
02:38PM 37.7072 -122.2680 45° Northeast 250 288 4,100 1,620 Climbing FlightAware ADS-B
02:39PM 37.7216 -122.2500 45° Northeast 263 303 4,600 1,920 Climbing FlightAware ADS-B
02:39PM 37.7369 -122.2310 44° Northeast 273 314 5,200 2,280 Climbing FlightAware ADS-B
02:39PM 37.7567 -122.2060 45° Northeast 277 319 6,100 2,340 Climbing FlightAware ADS-B
02:39PM 37.7718 -122.1870 45° Northeast 281 323 6,700 2,280 Climbing FlightAware ADS-B
02:40PM 37.7885 -122.1660 45° Northeast 285 328 7,400 2,160 Climbing FlightAware ADS-B
02:40PM 37.8050 -122.1460 44° Northeast 290 334 8,000 2,220 Climbing FlightAware ADS-B
02:40PM 37.8142 -122.1350 43° Northeast 292 336 8,400 2,460 Climbing FlightAware ADS-B
02:40PM 37.8304 -122.1190 38° Northeast 294 338 9,000 2,280 Climbing FlightAware ADS-B
02:41PM 37.8480 -122.1020 37° Northeast 295 339 9,600 1,860 Climbing FlightAware ADS-B
02:41PM 37.8824 -122.0700 36° Northeast 309 356 10,500 1,200 Climbing FlightAware ADS-B
02:42PM 37.9210 -122.0350 36° Northeast 342 394 10,900 900 Climbing FlightAware ADS-B
02:42PM 37.9656 -121.9950 35° Northeast 365 420 11,500 1,200 Climbing FlightAware ADS-B
02:43PM 38.0163 -121.9480 36° Northeast 384 442 12,300 1,320 Climbing FlightAware ADS-B
02:44PM 38.0740 -121.8950 36° Northeast 397 457 13,500 1,740 Climbing FlightAware
02:45PM 38.1690 -121.8070 36° Northeast 397 457 15,300 1,800 Climbing FlightAware ADS-B
02:45PM 38.2220 -121.7580 36° Northeast 418 481 16,400 1,800 Climbing FlightAware
02:46PM 38.3120 -121.6750 36° Northeast 430 495 18,100 2,100 Climbing FlightAware
02:47PM 38.3730 -121.6170 37° Northeast 434 499 19,300 2,040 Climbing FlightAware
02:47PM 38.4276 -121.5650 37° Northeast 417 480 20,600 2,040 Climbing FlightAware ADS-B
02:48PM 38.4739 -121.5010 47° Northeast 428 493 21,700 1,560 Climbing FlightAware ADS-B
02:49PM 38.5308 -121.4040 53° Northeast 428 493 22,800 1,440 Climbing FlightAware ADS-B
02:49PM 38.5667 -121.3410 54° Northeast 441 507 23,600 1,440 Climbing FlightAware ADS-B
02:50PM 38.6041 -121.2760 54° Northeast 446 513 24,300 1,200 Climbing FlightAware ADS-B
02:51PM 38.6960 -121.1180 53° Northeast 462 532 25,700 1,020 Climbing FlightAware
02:52PM 38.7460 -121.0310 54° Northeast 474 545 26,300 960 Climbing FlightAware
02:52PM 38.8050 -120.9280 54° Northeast 482 555 27,100 1,020 Climbing FlightAware
02:53PM 38.8530 -120.8460 53° Northeast 487 560 27,800 1,200 Climbing FlightAware
02:53PM 38.8900 -120.7820 53° Northeast 489 563 28,400 1,020 Climbing FlightAware
02:54PM 38.9320 -120.7100 53° Northeast 491 565 29,000 1,020 Climbing FlightAware
02:55PM 38.9760 -120.6320 54° Northeast 491 565 29,700 1,200 Climbing FlightAware
02:55PM 39.0310 -120.5380 53° Northeast 495 570 30,500 1,260 Climbing FlightAware
02:56PM 39.1050 -120.4080 54° Northeast 497 572 31,500 1,200 Climbing FlightAware
02:57PM 39.1540 -120.3230 53° Northeast 501 577 32,100 900 Climbing FlightAware
02:57PM 39.2070 -120.2300 54° Northeast 502 578 32,800 960 Climbing FlightAware
02:58PM 39.2610 -120.1350 54° Northeast 501 577 33,600 1,080 Climbing FlightAware
02:59PM 39.3140 -120.0430 53° Northeast 500 575 34,300 1,080 Climbing FlightAware
03:00PM 39.4080 -119.8760 54° Northeast 497 572 35,300 1,140 Climbing FlightAware
03:00PM 39.4710 -119.7640 54° Northeast 491 565 36,300 900 Climbing FlightAware
03:01PM 39.5260 -119.6650 54° Northeast 494 568 36,700 480 Climbing FlightAware
03:02PM 39.5830 -119.5640 54° Northeast 496 571 37,000 180 Climbing FlightAware
03:03PM 39.6370 -119.4660 54° Northeast 495 570 37,000  Level FlightAware
03:03PM 39.6880 -119.3750 54° Northeast 497 572 37,000  Level FlightAware
03:04PM 39.7390 -119.2830 54° Northeast 495 570 37,000  Level FlightAware
03:04PM 39.7680 -119.2300 55° Northeast 495 570 37,000  Level FlightAware
03:05PM 39.8230 -119.1320 54° Northeast 495 570 37,000  Level FlightAware
03:06PM 39.8960 -118.9980 55° Northeast 493 567 37,000  Level FlightAware
03:06PM 39.9360 -118.9240 55° Northeast 493 567 37,000  Level FlightAware
03:07PM 39.9940 -118.8190 54° Northeast 494 568 37,000  Level FlightAware
03:08PM 40.0370 -118.7410 54° Northeast 493 567 37,000  Level FlightAware
03:08PM 40.0960 -118.6320 55° Northeast 492 566 37,000  Level FlightAware
03:09PM 40.1510 -118.4850 64° Northeast 491 565 37,000  Level FlightAware
03:10PM 40.1850 -118.3630 70° East 491 565 37,000  Level FlightAware
03:11PM 40.2170 -118.2630 67° East 491 565 37,000  Level FlightAware
03:11PM 40.2590 -118.1420 66° East 491 565 37,000  Level FlightAware
03:12PM 40.2770 -118.0940 64° Northeast 492 566 37,000  Level FlightAware
03:13PM 40.3150 -117.9950 63° Northeast 492 566 37,000  Level FlightAware
03:13PM 40.3440 -117.9160 64° Northeast 492 566 37,000  Level FlightAware
03:14PM 40.3750 -117.8340 64° Northeast 492 566 37,000  Level FlightAware
03:14PM 40.4160 -117.7240 64° Northeast 492 566 37,000  Level FlightAware
03:15PM 40.4460 -117.6420 64° Northeast 492 566 37,000  Level FlightAware
03:16PM 40.5060 -117.4800 64° Northeast 492 566 37,000  Level FlightAware
03:17PM 40.5390 -117.3900 64° Northeast 492 566 37,000  Level FlightAware
03:18PM 40.5720 -117.3030 63° Northeast 492 566 37,000  Level FlightAware
03:18PM 40.6010 -117.2230 64° Northeast 492 566 37,000  Level FlightAware
03:19PM 40.6300 -117.1450 64° Northeast 492 566 37,000  Level FlightAware
03:19PM 40.6710 -117.0350 64° Northeast 492 566 37,000  Level FlightAware
03:20PM 40.7010 -116.9530 64° Northeast 492 566 37,000  Level FlightAware
03:21PM 40.7450 -116.8360 64° Northeast 492 566 37,000  Level FlightAware
03:22PM 40.7860 -116.7230 64° Northeast 492 566 37,000  Level FlightAware
03:22PM 40.8170 -116.6400 64° Northeast 492 566 37,000  Level FlightAware
03:24PM 41.0280 -116.0270 65° Northeast 498 573 37,000  Level FlightAware ADS-B
03:25PM 41.0591 -115.9380 65° Northeast 498 573 37,000  Level FlightAware ADS-B
03:26PM 41.0968 -115.8300 65° Northeast 498 573 37,000  Level FlightAware ADS-B
03:27PM 41.1500 -115.6770 65° Northeast 500 575 37,000  Level FlightAware
03:27PM 41.1823 -115.5820 66° East 501 577 37,000  Level FlightAware ADS-B
03:28PM 41.2530 -115.3770 65° Northeast 501 577 37,000  Level FlightAware
03:29PM 41.2856 -115.2800 66° East 504 580 37,000  Level FlightAware ADS-B
03:29PM 41.3142 -115.1960 66° East 504 580 37,000  Level FlightAware ADS-B
03:30PM 41.3432 -115.1100 66° East 504 580 37,000  Level FlightAware ADS-B
03:30PM 41.3720 -115.0250 66° East 504 580 37,000  Level FlightAware ADS-B
03:31PM 41.4049 -114.9280 66° East 505 581 37,000  Level FlightAware ADS-B
03:31PM 41.4382 -114.8280 66° East 505 581 37,000  Level FlightAware ADS-B
03:32PM 41.4689 -114.7360 66° East 505 581 37,000  Level FlightAware ADS-B
03:33PM 41.5065 -114.6230 66° East 505 581 37,000  Level FlightAware ADS-B
03:33PM 41.5352 -114.5370 66° East 506 582 37,000  Level FlightAware ADS-B
03:34PM 41.5637 -114.4510 66° East 506 582 37,000  Level FlightAware ADS-B
03:34PM 41.5922 -114.3640 66° East 506 582 37,000  Level FlightAware ADS-B
03:35PM 41.6206 -114.2780 66° East 506 582 37,000  Level FlightAware ADS-B
03:35PM 41.6492 -114.1900 66° East 506 582 37,000  Level FlightAware ADS-B
03:36PM 41.6778 -114.1020 66° East 506 582 37,000  Level FlightAware ADS-B
03:36PM 41.7065 -114.0150 66° East 507 583 37,000  Level FlightAware ADS-B
03:37PM 41.7392 -113.9140 67° East 508 585 37,000  Level FlightAware ADS-B
03:37PM 41.7728 -113.8100 67° East 508 585 37,000  Level FlightAware ADS-B
03:38PM 41.8022 -113.7180 67° East 508 585 37,000  Level FlightAware ADS-B
03:38PM 41.8302 -113.6310 67° East 509 586 37,000  Level FlightAware ADS-B
03:39PM 41.8595 -113.5390 67° East 508 585 37,000  Level FlightAware ADS-B
03:40PM 41.9133 -113.3710 67° East 508 585 37,000  Level FlightAware ADS-B
03:41PM 41.9480 -113.2590 67° East 508 585 37,000  Level FlightAware
03:41PM 41.9694 -113.1930 66° East 509 586 37,000  Level FlightAware ADS-B
03:42PM 42.0006 -113.0940 67° East 509 586 37,000  Level FlightAware ADS-B
03:42PM 42.0473 -112.9440 67° East 509 586 37,000  Level FlightAware ADS-B
03:43PM 42.0874 -112.8160 67° East 509 586 37,000  Level FlightAware ADS-B
03:44PM 42.1300 -112.6790 67° East 507 583 37,000  Level FlightAware
03:44PM 42.1519 -112.6070 68° East 509 586 37,000  Level FlightAware ADS-B
03:45PM 42.1840 -112.5030 67° East 508 585 37,000  Level FlightAware ADS-B
03:46PM 42.2211 -112.3840 67° East 508 585 37,000  Level FlightAware ADS-B
03:46PM 42.2435 -112.3170 66° East 505 581 37,000  Level FlightAware ADS-B
03:47PM 42.2814 -112.2020 66° East 505 581 37,000  Level FlightAware ADS-B
03:48PM 42.3398 -112.0230 66° East 508 585 37,000  Level FlightAware ADS-B
03:48PM 42.3682 -111.9360 66° East 507 583 37,000  Level FlightAware ADS-B
03:49PM 42.3963 -111.8480 67° East 508 585 37,000  Level FlightAware ADS-B
03:49PM 42.4298 -111.7430 67° East 508 585 37,000  Level FlightAware ADS-B
03:50PM 42.4790 -111.5890 67° East 510 587 37,000  Level FlightAware ADS-B
03:51PM 42.5222 -111.4530 67° East 509 586 37,000  Level FlightAware ADS-B
03:52PM 42.5550 -111.3510 66° East 509 586 37,000  Level FlightAware
03:52PM 42.5890 -111.2440 67° East 509 586 37,000  Level FlightAware
03:53PM 42.6230 -111.1420 66° East 509 586 37,000  Level FlightAware
03:53PM 42.6420 -111.0820 67° East 509 586 37,000  Level FlightAware
03:54PM 42.6750 -110.9830 66° East 509 586 37,000  Level FlightAware
03:55PM 42.7140 -110.8640 66° East 509 586 37,000  Level FlightAware
03:55PM 42.7430 -110.7740 66° East 509 586 37,000  Level FlightAware
03:56PM 42.7730 -110.6820 66° East 509 586 37,000  Level FlightAware
03:57PM 42.8010 -110.5970 66° East 509 586 37,000  Level FlightAware
03:58PM 42.8460 -110.4600 66° East 509 586 37,000  Level FlightAware
03:58PM 42.8780 -110.3600 66° East 509 586 37,000  Level FlightAware
03:59PM 42.9170 -110.2430 65° Northeast 509 586 37,000  Level FlightAware
04:00PM 42.9490 -110.1430 66° East 509 586 37,000  Level FlightAware
04:00PM 42.9770 -110.0580 66° East 509 586 37,000  Level FlightAware
04:01PM 43.0060 -109.9680 66° East 509 586 37,000  Level FlightAware
04:02PM 43.0586 -109.4556 66° East 511 588 37,000  Level Salt Lake Center
04:03PM 43.1089 -109.2750 69° East 510 587 37,000  Level Salt Lake Center
04:04PM 43.1344 -109.0814 80° East 518 596 37,000  Level Salt Lake Center
04:05PM 43.1575 -108.8886 81° East 515 593 37,000  Level Salt Lake Center
04:06PM 43.1806 -108.6569 82° East 515 593 37,000  Level Salt Lake Center
04:07PM 43.1986 -108.4608 83° East 517 595 37,000  Level Salt Lake Center
04:08PM 43.2117 -108.2628 85° East 521 600 37,000  Level Salt Lake Center
04:09PM 43.2258 -108.0647 84° East 524 603 37,000  Level Salt Lake Center
04:10PM 43.2397 -107.8678 84° East 523 602 37,000  Level Salt Lake Center
04:11PM 43.2547 -107.6753 84° East 517 595 37,000  Level Salt Lake Center
04:12PM 43.2714 -107.4358 84° East 524 603 37,000  Level Salt Lake Center
04:14PM 43.2839 -107.2356 85° East 528 608 37,000  Level Salt Lake Center
04:15PM 43.2989 -107.0375 84° East 527 606 37,000  Level Salt Lake Center
04:16PM 43.3356 -106.8261 77° East 514 592 37,000  Level Salt Lake Center
04:16PM 43.3647 -106.6711 75° East 515 593 37,000  Level Denver Center
04:17PM 43.3983 -106.4847 76° East 520 598 37,000  Level Denver Center
04:19PM 43.4514 -106.2739 71° East 522 601 37,000  Level Denver Center
04:20PM 43.4997 -106.0942 70° East 523 602 37,000  Level Denver Center
04:21PM 43.5569 -105.8839 69° East 522 601 37,000  Level Denver Center
04:22PM 43.5969 -105.7353 70° East 519 597 37,000  Level Denver Center
04:23PM 43.6547 -105.5233 69° East 525 604 37,000  Level Denver Center
04:24PM 43.7125 -105.3142 69° East 524 603 37,000  Level Denver Center
04:25PM 43.7594 -105.1361 70° East 517 595 37,000  Level Denver Center
04:26PM 43.8161 -104.9283 69° East 516 594 37,000  Level Denver Center
04:27PM 43.8653 -104.7506 69° East 516 594 37,000  Level Denver Center
04:28PM 43.9222 -104.5442 69° East 515 593 37,000  Level Denver Center
04:29PM 43.9711 -104.3683 69° East 510 587 37,000  Level Denver Center
04:30PM 44.0206 -104.1961 68° East 503 579 37,000  Level Denver Center
04:31PM 44.0811 -103.9953 67° East 504 580 37,000  Level Denver Center
04:32PM 44.1358 -103.8228 66° East 506 582 37,000  Level Denver Center
04:33PM 44.2081 -103.6303 62° Northeast 502 578 37,000  Level Denver Center
04:34PM 44.2578 -103.4558 68° East 503 579 37,000  Level Denver Center
04:35PM 44.3097 -103.2481 71° East 508 585 37,000  Level Denver Center
04:36PM 44.3525 -103.0653 72° East 502 578 37,000  Level Denver Center
04:37PM 44.3642 -102.8647 85° East 514 592 37,000  Level Denver Center
04:38PM 44.3783 -102.6681 84° East 513 590 37,000  Level Denver Center
04:39PM 44.3914 -102.4683 85° East 515 593 37,000  Level Denver Center
04:40PM 44.4050 -102.2694 84° East 515 593 37,000  Level Denver Center
04:41PM 44.4417 -102.0342 78° East 520 598 37,000  Level Denver Center
04:42PM 44.4719 -101.8378 78° East 517 595 37,000  Level Denver Center
04:43PM 44.5017 -101.6397 78° East 520 598 37,000  Level Denver Center
04:44PM 44.5322 -101.4414 78° East 521 600 37,000  Level Denver Center
04:45PM 44.5625 -101.2444 78° East 521 600 37,000  Level Minneapolis Center
04:46PM 44.5953 -101.0486 77° East 520 598 37,000  Level Minneapolis Center
04:47PM 44.6286 -100.8528 76° East 519 597 37,000  Level Minneapolis Center
04:48PM 44.6611 -100.6581 77° East 516 594 37,000  Level Minneapolis Center
04:49PM 44.6933 -100.4642 77° East 514 592 37,000  Level Minneapolis Center
04:50PM 44.7308 -100.2308 77° East 514 592 37,000  Level Minneapolis Center
04:51PM 44.7603 -100.0378 78° East 512 589 37,000  Level Minneapolis Center
04:53PM 44.7689 -99.7986 87° East 516 594 37,000  Level Minneapolis Center
04:54PM 44.7747 -99.5992 88° East 517 595 37,000  Level Minneapolis Center
04:55PM 44.7836 -99.3186 87° East 518 596 37,000  Level Minneapolis Center
05:00PM 44.9550 -98.2530 87° East 513 590 37,000  Level FlightAware
05:01PM 44.9730 -98.0730 82° East 516 594 37,000  Level FlightAware
05:02PM 44.9840 -97.9410 83° East 517 595 37,000  Level FlightAware
05:03PM 44.9960 -97.7920 83° East 517 595 37,000  Level FlightAware
05:03PM 45.0060 -97.6780 83° East 517 595 37,000  Level FlightAware
05:04PM 45.0150 -97.5810 82° East 517 595 37,000  Level FlightAware
05:05PM 45.0290 -97.4160 83° East 519 597 37,000  Level FlightAware
05:05PM 45.0450 -97.2420 83° East 520 598 37,000  Level FlightAware
05:06PM 45.0590 -97.0860 83° East 521 600 37,000  Level FlightAware
05:07PM 45.0710 -96.9600 82° East 521 600 37,000  Level FlightAware
05:08PM 45.0860 -96.8120 82° East 522 601 37,000  Level FlightAware
05:08PM 45.1020 -96.6610 81° East 523 602 37,000  Level FlightAware
05:09PM 45.1150 -96.5330 82° East 523 602 37,000  Level FlightAware
05:10PM 45.1290 -96.3910 82° East 524 603 37,000  Level FlightAware
05:10PM 45.1420 -96.2620 82° East 524 603 37,000  Level FlightAware
05:11PM 45.1530 -96.1660 81° East 523 602 37,000  Level FlightAware
05:12PM 45.1800 -95.9810 78° East 522 601 37,000  Level FlightAware
05:12PM 45.1980 -95.8600 78° East 524 603 37,000  Level FlightAware
05:13PM 45.2160 -95.7380 78° East 523 602 37,000  Level FlightAware
05:14PM 45.2390 -95.5840 78° East 520 598 37,000  Level FlightAware
05:14PM 45.2590 -95.4470 78° East 518 596 37,000  Level FlightAware
05:15PM 45.2800 -95.3060 78° East 517 595 37,000  Level FlightAware
05:16PM 45.3040 -95.1660 76° East 516 594 37,000  Level FlightAware
05:16PM 45.3290 -95.0300 75° East 516 594 37,000  Level FlightAware
05:17PM 45.3510 -94.9060 76° East 516 594 37,000  Level FlightAware
05:18PM 45.3740 -94.7750 76° East 515 593 37,000  Level FlightAware
05:18PM 45.3990 -94.6390 75° East 516 594 37,000  Level FlightAware
05:19PM 45.4180 -94.5170 77° East 517 595 37,000  Level FlightAware
05:20PM 45.4220 -94.3840 87° East 522 601 37,000  Level FlightAware
05:20PM 45.4150 -94.2530 94° East 523 602 37,000  Level FlightAware
05:21PM 45.4000 -94.0600 96° East 524 603 37,000  Level FlightAware
05:22PM 45.3890 -93.9250 97° East 524 603 37,000  Level FlightAware
05:23PM 45.3760 -93.7800 97° East 525 604 37,000  Level FlightAware
05:23PM 45.3670 -93.6740 97° East 525 604 37,000  Level FlightAware
05:24PM 45.3540 -93.5280 97° East 526 605 37,000  Level FlightAware
05:25PM 45.3410 -93.3770 97° East 528 608 37,000  Level FlightAware
05:25PM 45.3290 -93.2400 97° East 526 605 37,000  Level FlightAware
05:26PM 45.3150 -93.0840 97° East 526 605 37,000  Level FlightAware
05:27PM 45.3020 -92.9480 98° East 526 605 37,000  Level FlightAware
05:27PM 45.2880 -92.8000 98° East 526 605 37,000  Level FlightAware
05:28PM 45.2770 -92.6800 97° East 525 604 37,000  Level FlightAware
05:29PM 45.2640 -92.5460 98° East 525 604 37,000  Level FlightAware
05:29PM 45.2500 -92.3970 98° East 525 604 37,000  Level FlightAware
05:30PM 45.2390 -92.2820 98° East 527 606 37,000  Level FlightAware
05:31PM 45.2220 -92.1190 98° East 526 605 37,000  Level FlightAware
05:31PM 45.2090 -91.9830 98° East 526 605 37,000  Level FlightAware
05:32PM 45.1920 -91.8190 98° East 528 608 37,000 240 Level FlightAware
05:33PM 45.1770 -91.6750 98° East 529 609 37,400 720 Climbing FlightAware
05:34PM 45.1610 -91.5250 99° East 528 608 38,100 960 Climbing FlightAware
05:34PM 45.1470 -91.3860 98° East 525 604 38,800 660 Climbing FlightAware
05:35PM 45.1330 -91.2570 99° East 521 600 39,000 120 Climbing FlightAware
05:36PM 45.1180 -91.1180 99° East 517 595 39,000  Level FlightAware
05:36PM 45.1020 -90.9760 99° East 522 601 39,000  Level FlightAware
05:37PM 45.0890 -90.8540 99° East 523 602 39,000  Level FlightAware
05:38PM 45.0720 -90.7040 99° East 525 604 39,000  Level FlightAware
05:38PM 45.0590 -90.5910 99° East 527 606 39,000  Level FlightAware
05:39PM 45.0420 -90.4440 99° East 529 609 39,000  Level FlightAware
05:40PM 45.0260 -90.3010 99° East 530 610 39,000  Level FlightAware
05:40PM 45.0110 -90.1770 100° East 530 610 39,000  Level FlightAware
05:41PM 44.9980 -90.0660 99° East 530 610 39,000  Level FlightAware
05:42PM 44.9810 -89.9280 100° East 529 609 39,000  Level FlightAware
05:42PM 44.9650 -89.7880 99° East 528 608 39,000  Level FlightAware
05:43PM 44.9460 -89.6350 100° East 526 605 39,000  Level FlightAware
05:44PM 44.9290 -89.4970 100° East 525 604 39,000  Level FlightAware
05:44PM 44.9110 -89.3510 100° East 524 603 39,000  Level FlightAware
05:45PM 44.8930 -89.2130 100° East 523 602 39,000  Level FlightAware
05:46PM 44.8760 -89.0750 100° East 523 602 39,000  Level FlightAware
05:46PM 44.8590 -88.9440 100° East 522 601 39,000  Level FlightAware
05:47PM 44.8420 -88.8150 100° East 522 601 39,000  Level FlightAware
05:48PM 44.8240 -88.6750 100° East 523 602 39,000  Level FlightAware
05:48PM 44.8060 -88.5440 101° East 523 602 39,000  Level FlightAware
05:49PM 44.7900 -88.4240 101° East 523 602 39,000  Level FlightAware
05:50PM 44.7690 -88.2670 101° East 523 602 39,000  Level FlightAware
05:50PM 44.7520 -88.1410 101° East 523 602 39,000  Level FlightAware
05:51PM 44.7350 -88.0150 101° East 523 602 39,000  Level FlightAware
05:52PM 44.7160 -87.8780 101° East 523 602 39,000  Level FlightAware
05:52PM 44.6970 -87.7450 101° East 524 603 39,000  Level FlightAware
05:53PM 44.6760 -87.5950 101° East 524 603 39,000  Level FlightAware
05:54PM 44.6590 -87.4750 101° East 524 603 39,000  Level FlightAware
05:54PM 44.6410 -87.3480 101° East 524 603 39,000  Level FlightAware
05:55PM 44.6170 -87.1850 102° East 523 602 39,000  Level FlightAware
05:56PM 44.5980 -87.0560 102° East 523 602 39,000  Level FlightAware
05:57PM 44.5790 -86.9170 101° East 523 602 39,000  Level FlightAware
05:57PM 44.5970 -86.8110 77° East 526 605 39,000  Level FlightAware
05:58PM 44.6120 -86.6650 82° East 527 606 39,000  Level FlightAware
05:58PM 44.6290 -86.5520 78° East 527 606 39,000  Level FlightAware
05:59PM 44.6760 -86.3410 73° East 527 606 39,000  Level FlightAware
06:00PM 44.7050 -86.2150 72° East 528 608 39,000  Level FlightAware
06:01PM 44.7330 -86.0870 73° East 528 608 39,000  Level FlightAware
06:01PM 44.7550 -85.9780 74° East 530 610 39,000  Level FlightAware
06:02PM 44.7920 -85.7990 74° East 531 611 39,000  Level FlightAware
06:03PM 44.8210 -85.6560 74° East 530 610 39,000  Level FlightAware
06:04PM 44.8520 -85.5080 73° East 530 610 39,000  Level FlightAware
06:04PM 44.8760 -85.3870 74° East 531 611 39,000  Level FlightAware
06:05PM 44.9040 -85.2480 74° East 533 613 39,000  Level FlightAware
06:06PM 44.9330 -85.1070 74° East 533 613 39,000  Level FlightAware
06:06PM 44.9660 -84.9510 73° East 532 612 39,000  Level FlightAware
06:07PM 44.9960 -84.8160 73° East 533 613 39,000  Level FlightAware
06:08PM 45.0270 -84.6760 73° East 533 613 39,000  Level FlightAware
06:08PM 45.0600 -84.5390 71° East 533 613 39,000  Level FlightAware
06:09PM 45.0880 -84.4130 72° East 534 615 39,000  Level FlightAware
06:10PM 45.1150 -84.2780 74° East 535 616 39,000  Level FlightAware
06:10PM 45.1400 -84.1420 75° East 536 617 39,000  Level FlightAware
06:11PM 45.1660 -83.9930 76° East 537 618 39,000  Level FlightAware
06:12PM 45.1900 -83.8570 76° East 539 620 39,000  Level FlightAware
06:13PM 45.2170 -83.7050 76° East 541 623 39,000  Level FlightAware
06:13PM 45.2210 -83.5220 88° East 537 618 39,000  Level FlightAware
06:14PM 45.2170 -83.3700 92° East 538 619 39,000  Level FlightAware
06:15PM 45.2120 -83.2140 93° East 540 621 39,000  Level FlightAware
06:16PM 45.2090 -83.0500 91° East 542 624 39,000  Level FlightAware
06:16PM 45.2040 -82.9050 93° East 537 618 39,000  Level FlightAware
06:17PM 45.1920 -82.8010 99° East 534 615 39,000  Level FlightAware
06:18PM 45.1590 -82.6320 105° East 532 612 39,000  Level FlightAware
06:18PM 45.1310 -82.4930 106° East 533 613 39,000  Level FlightAware
06:19PM 45.1060 -82.3740 107° East 533 613 39,000  Level FlightAware
06:20PM 45.0590 -82.1990 111° Southeast 525 604 39,000  Level FlightAware
06:21PM 45.0120 -82.0570 115° Southeast 524 603 39,000  Level FlightAware
06:21PM 44.9680 -81.9280 116° Southeast 525 604 39,000  Level FlightAware
06:22PM 44.9260 -81.8100 117° Southeast 525 604 39,000  Level FlightAware
06:23PM 44.8780 -81.6740 116° Southeast 525 604 39,000  Level FlightAware
06:23PM 44.8380 -81.5610 116° Southeast 526 605 39,000  Level FlightAware
06:24PM 44.8010 -81.4600 117° Southeast 527 606 39,000  Level FlightAware
06:24PM 44.7700 -81.3740 117° Southeast 528 608 39,000  Level FlightAware
06:25PM 44.7110 -81.2100 117° Southeast 528 608 39,000  Level FlightAware
06:26PM 44.6760 -81.1150 117° Southeast 527 606 39,000  Level FlightAware
06:27PM 44.6110 -80.9370 117° Southeast 526 605 39,000  Level FlightAware
06:27PM 44.5670 -80.8170 117° Southeast 525 604 39,000  Level FlightAware
06:28PM 44.5160 -80.6790 117° Southeast 524 603 39,000  Level FlightAware
06:29PM 44.4710 -80.5580 117° Southeast 522 601 39,000  Level FlightAware
06:30PM 44.4270 -80.4380 117° Southeast 523 602 39,000  Level FlightAware
06:30PM 44.3770 -80.3040 118° Southeast 524 603 39,000  Level FlightAware
06:31PM 44.3370 -80.1990 118° Southeast 525 604 39,000  Level FlightAware
06:32PM 44.2940 -80.0840 118° Southeast 525 604 39,000  Level FlightAware
06:32PM 44.2430 -79.9490 118° Southeast 526 605 39,000  Level FlightAware
06:33PM 44.1790 -79.7810 118° Southeast 526 605 39,000  Level FlightAware
06:34PM 44.1390 -79.6770 118° Southeast 525 604 39,000  Level FlightAware
06:34PM 44.0960 -79.5650 118° Southeast 524 603 39,000  Level FlightAware
06:35PM 44.0430 -79.4280 118° Southeast 523 602 39,000  Level FlightAware
06:36PM 43.9970 -79.3090 118° Southeast 521 600 39,000  Level FlightAware
06:37PM 43.9510 -79.1890 118° Southeast 523 602 39,000  Level FlightAware
06:37PM 43.9060 -79.0740 118° Southeast 522 601 39,000  Level FlightAware
06:38PM 43.8610 -78.9570 118° Southeast 521 600 39,000  Level FlightAware
06:39PM 43.8020 -78.8080 119° Southeast 520 598 39,000  Level FlightAware
06:39PM 43.7680 -78.7200 118° Southeast 520 598 39,000  Level FlightAware
06:40PM 43.7070 -78.5650 119° Southeast 519 597 39,000  Level FlightAware
06:41PM 43.6580 -78.4440 119° Southeast 517 595 39,000  Level FlightAware
06:42PM 43.6070 -78.3160 119° Southeast 516 594 39,000  Level FlightAware
06:42PM 43.5560 -78.1870 119° Southeast 515 593 39,000  Level FlightAware
06:43PM 43.5120 -78.0780 119° Southeast 514 592 39,000  Level FlightAware
06:44PM 43.4660 -77.9630 119° Southeast 513 590 39,000  Level FlightAware
06:44PM 43.4120 -77.8300 119° Southeast 513 590 39,000  Level FlightAware
06:45PM 43.3710 -77.7310 120° Southeast 513 590 39,000  Level FlightAware
06:46PM 43.3250 -77.6180 119° Southeast 512 589 39,000  Level FlightAware
06:46PM 43.2830 -77.5150 119° Southeast 511 588 39,000  Level FlightAware
06:47PM 43.2330 -77.3930 119° Southeast 510 587 39,000  Level FlightAware
06:48PM 43.1740 -77.2520 120° Southeast 509 586 39,000  Level FlightAware
06:49PM 43.1220 -77.1260 119° Southeast 506 582 39,000  Level FlightAware
06:49PM 43.0730 -77.0090 120° Southeast 506 582 39,000  Level FlightAware
06:50PM 43.0240 -76.8920 120° Southeast 506 582 39,000  Level FlightAware
06:51PM 42.9710 -76.7660 120° Southeast 506 582 39,000  Level FlightAware
06:51PM 42.9290 -76.6670 120° Southeast 505 581 39,000  Level FlightAware
06:52PM 42.8780 -76.5150 115° Southeast 514 592 39,000  Level FlightAware
06:53PM 42.8370 -76.3790 112° Southeast 513 590 39,000  Level FlightAware
06:54PM 42.7970 -76.2500 113° Southeast 500 575 39,000  Level FlightAware
06:54PM 42.7580 -76.1280 113° Southeast 494 568 39,000  Level FlightAware
06:55PM 42.7310 -76.0460 114° Southeast 491 565 39,000  Level FlightAware
06:55PM 42.6940 -75.9320 114° Southeast 491 565 39,000  Level FlightAware
06:56PM 42.6570 -75.8180 114° Southeast 494 568 39,000  Level FlightAware
06:57PM 42.6170 -75.6950 114° Southeast 495 570 39,000  Level FlightAware
06:58PM 42.5790 -75.5810 114° Southeast 495 570 39,000  Level FlightAware
06:58PM 42.5500 -75.4910 114° Southeast 494 568 39,000  Level FlightAware
06:59PM 42.5180 -75.3950 114° Southeast 493 567 39,000  Level FlightAware
06:59PM 42.4820 -75.2870 114° Southeast 491 565 39,000  Level FlightAware
07:00PM 42.4330 -75.1810 122° Southeast 462 532 39,000  Level FlightAware
07:00PM 42.4050 -75.1560 147° Southeast 443 510 39,000  Level FlightAware
07:01PM 42.3510 -75.1400 168° South 413 475 39,000  Level FlightAware
07:01PM 42.2790 -75.1700 197° South 385 443 39,000  Level FlightAware
07:02PM 42.2342 -75.2432 230° Southwest 373 429 39,000  Level FlightAware ADS-B
07:02PM 42.2296 -75.2602 250° West 373 429 39,000  Level FlightAware ADS-B
07:03PM 42.2241 -75.3115 262° West 377 434 39,000  Level FlightAware ADS-B
07:03PM 42.2278 -75.3507 277° West 384 442 39,000  Level FlightAware ADS-B
07:03PM 42.2323 -75.3704 287° West 388 447 39,000  Level FlightAware ADS-B
07:04PM 42.2588 -75.4602 292° West 388 447 39,000  Level FlightAware ADS-B
07:04PM 42.2800 -75.5310 292° West 387 445 39,000  Level FlightAware
07:05PM 42.3150 -75.6390 294° West 385 443 39,000  Level FlightAware
07:06PM 42.3480 -75.7360 295° West 382 440 39,000  Level FlightAware
07:06PM 42.3650 -75.7870 294° West 379 436 39,000  Level FlightAware
07:06PM 42.3810 -75.8200 303° West 390 449 39,000  Level FlightAware
07:07PM 42.4340 -75.8760 322° Northwest 420 483 39,000  Level FlightAware
07:08PM 42.5540 -75.8680 North 495 570 39,000  Level FlightAware
07:08PM 42.5910 -75.8230 42° Northeast 511 588 39,000  Level FlightAware
07:09PM 42.6150 -75.7390 69° East 513 590 39,000  Level FlightAware
07:10PM 42.5950 -75.6220 103° East 490 564 39,000  Level FlightAware
07:10PM 42.5580 -75.5130 115° Southeast 487 560 39,000  Level FlightAware
07:11PM 42.5170 -75.3930 115° Southeast 484 557 39,000  Level FlightAware
07:12PM 42.4800 -75.2810 114° Southeast 482 555 39,000  Level FlightAware
07:12PM 42.4636 -75.2330 115° Southeast 481 554 39,000  Level FlightAware ADS-B
07:13PM 42.3779 -75.1433 142° Southeast 426 490 39,000  Level FlightAware ADS-B
07:13PM 42.3610 -75.1394 170° South 416 479 39,000  Level FlightAware ADS-B
07:13PM 42.3458 -75.1385 177° South 409 471 39,000  Level FlightAware ADS-B
07:13PM 42.3307 -75.1398 184° South 404 465 39,000  Level FlightAware ADS-B
07:14PM 42.2897 -75.1567 197° South 388 447 39,000  Level FlightAware ADS-B
07:14PM 42.2747 -75.1686 210° Southwest 383 441 39,000  Level FlightAware ADS-B
07:14PM 42.2457 -75.2058 224° Southwest 376 433 39,000  Level FlightAware ADS-B
07:14PM 42.2290 -75.2449 240° Southwest 373 429 39,000  Level FlightAware ADS-B
07:15PM 42.2248 -75.2608 250° West 374 430 39,000  Level FlightAware ADS-B
07:15PM 42.2192 -75.3041 260° West 376 433 39,000  Level FlightAware ADS-B
07:15PM 42.2218 -75.3469 275° West 380 437 39,000  Level FlightAware ADS-B
07:15PM 42.2233 -75.3559 283° West 381 438 39,000  Level FlightAware ADS-B
07:16PM 42.2368 -75.4021 292° West 385 443 39,000  Level FlightAware ADS-B
07:16PM 42.2550 -75.4700 290° West 379 436 39,000  Level FlightAware
07:16PM 42.2643 -75.5012 292° West 380 437 39,000  Level FlightAware ADS-B
07:17PM 42.3080 -75.6340 294° West 376 433 39,000  Level FlightAware
07:18PM 42.3400 -75.7280 295° West 374 430 39,000  Level FlightAware
07:19PM 42.3740 -75.8090 300° West 390 449 39,000  Level FlightAware
07:20PM 42.4450 -75.8690 328° Northwest 439 505 39,000  Level FlightAware
07:20PM 42.5270 -75.8610 North 484 557 39,000  Level FlightAware
07:21PM 42.5630 -75.8300 32° Northeast 501 577 39,000  Level FlightAware
07:21PM 42.5970 -75.7630 55° Northeast 515 593 39,000  Level FlightAware
07:22PM 42.6000 -75.6280 88° East 502 578 39,000  Level FlightAware
07:22PM 42.5500 -75.5230 123° Southeast 488 562 39,000  Level FlightAware
07:23PM 42.4930 -75.4210 127° Southeast 494 568 39,000 -360 Level FlightAware
07:24PM 42.4340 -75.3090 125° Southeast 498 573 38,500 -1,560 Descending FlightAware
07:24PM 42.3810 -75.2040 124° Southeast 503 579 36,800 -2,580 Descending FlightAware
07:25PM 42.3320 -75.1060 124° Southeast 507 583 35,100 -2,820 Descending FlightAware
07:26PM 42.2710 -74.9860 124° Southeast 512 589 32,900 -2,100 Descending FlightAware
07:27PM 42.2230 -74.8900 124° Southeast 514 592 32,100 -3,120 Descending FlightAware
07:27PM 42.1788 -74.8048 125° Southeast 513 590 29,400 -2,700 Descending FlightAware ADS-B
07:28PM 42.0976 -74.6467 125° Southeast 522 601 28,300 -780 Descending FlightAware ADS-B
07:29PM 42.0261 -74.5082 125° Southeast 485 558 28,000 -240 Descending FlightAware ADS-B
07:29PM 41.9808 -74.4213 125° Southeast 492 566 28,000 -720 Level FlightAware ADS-B
07:30PM 41.9100 -74.2860 125° Southeast 501 577 27,000 -1,080 Descending FlightAware
07:31PM 41.8832 -74.2350 125° Southeast 500 575 26,700 -840 Descending FlightAware ADS-B
07:31PM 41.8337 -74.1407 125° Southeast 485 558 26,200 -900 Descending FlightAware ADS-B
07:32PM 41.7926 -74.0627 125° Southeast 472 543 25,700 -1,440 Descending FlightAware ADS-B
07:32PM 41.7514 -73.9842 125° Southeast 466 536 24,700 -1,920 Descending FlightAware ADS-B
07:33PM 41.7292 -73.9433 126° Southeast 460 529 24,100 -2,040 Descending FlightAware ADS-B
07:33PM 41.7007 -73.9089 138° Southeast 449 517 23,500 -2,040 Descending FlightAware ADS-B
07:33PM 41.6958 -73.9047 147° Southeast 446 513 23,400 -1,740 Descending FlightAware ADS-B
07:33PM 41.6750 -73.8912 154° Southeast 431 496 23,100 -2,040 Descending FlightAware ADS-B
07:34PM 41.6453 -73.8815 166° South 433 498 22,500 -2,100 Descending FlightAware ADS-B
07:34PM 41.6382 -73.8808 176° South 415 478 22,400 -1,740 Descending FlightAware ADS-B
07:34PM 41.6185 -73.8818 182° South 406 467 22,100 -1,920 Descending FlightAware ADS-B
07:34PM 41.5860 -73.8934 195° South 391 450 21,500 -1,860 Descending FlightAware ADS-B
07:34PM 41.5747 -73.9007 206° Southwest 386 444 21,300 -1,200 Descending FlightAware ADS-B
07:34PM 41.5701 -73.9043 210° Southwest 386 444 21,300 -1,740 Level FlightAware ADS-B
07:35PM 41.5222 -73.9450 212° Southwest 375 432 20,300 -1,260 Descending FlightAware ADS-B
07:35PM 41.4756 -73.9854 213° Southwest 374 430 20,000 -300 Descending FlightAware ADS-B
07:36PM 41.4315 -74.0238 213° Southwest 376 433 20,000  Level FlightAware ADS-B
07:36PM 41.3871 -74.0621 213° Southwest 376 433 20,000  Level FlightAware ADS-B
07:37PM 41.3422 -74.1006 213° Southwest 376 433 20,000  Level FlightAware ADS-B
07:37PM 41.3241 -74.1151 211° Southwest 379 436 20,000  Level FlightAware ADS-B
07:37PM 41.2979 -74.1301 203° Southwest 386 444 20,000  Level FlightAware ADS-B
07:37PM 41.2801 -74.1367 196° South 391 450 20,000  Level FlightAware ADS-B
07:38PM 41.2682 -74.1395 190° South 393 452 20,000 -600 Level FlightAware ADS-B
07:38PM 41.2449 -74.1418 184° South 400 460 19,800 -1,380 Descending FlightAware ADS-B
07:38PM 41.1863 -74.1411 179° South 412 474 19,000 -780 Descending FlightAware ADS-B
07:39PM 41.1274 -74.1392 179° South 405 466 19,000  Level FlightAware ADS-B
07:39PM 41.0697 -74.1376 179° South 405 466 19,000  Level FlightAware ADS-B
07:40PM 41.0148 -74.1363 179° South 369 425 19,000  Level FlightAware ADS-B
07:40PM 40.9655 -74.1355 179° South 343 395 19,000  Level FlightAware ADS-B
07:41PM 40.9518 -74.1352 179° South 341 392 19,000  Level FlightAware ADS-B
07:41PM 40.9422 -74.1338 174° South 342 394 19,000  Level FlightAware ADS-B
07:41PM 40.9385 -74.1329 170° South 342 394 19,000  Level FlightAware ADS-B
07:41PM 40.9319 -74.1304 164° South 343 395 19,000  Level FlightAware ADS-B
07:41PM 40.9305 -74.1299 165° South 343 395 19,000  Level FlightAware ADS-B
07:41PM 40.9228 -74.1258 158° South 345 397 19,000  Level FlightAware ADS-B
07:41PM 40.9116 -74.1171 150° Southeast 350 403 19,000  Level FlightAware ADS-B
07:41PM 40.9111 -74.1166 143° Southeast 350 403 19,000  Level FlightAware ADS-B
07:41PM 40.9023 -74.1064 139° Southeast 354 407 19,000  Level FlightAware ADS-B
07:41PM 40.8946 -74.0939 129° Southeast 357 411 19,000  Level FlightAware ADS-B
07:41PM 40.8929 -74.0909 127° Southeast 357 411 19,000 -420 Level FlightAware ADS-B
07:42PM 40.8657 -74.0369 124° Southeast 362 417 18,800 -420 Descending FlightAware ADS-B
07:42PM 40.8650 -74.0354 122° Southeast 362 417 18,800 -1,200 Level FlightAware ADS-B
07:42PM 40.8391 -73.9808 122° Southeast 355 409 18,200 -1,200 Descending FlightAware ADS-B
07:42PM 40.8381 -73.9788 123° Southeast 355 409 18,200 -1,440 Level FlightAware ADS-B
07:43PM 40.8124 -73.9256 123° Southeast 349 402 17,500 -1,440 Descending FlightAware ADS-B
07:43PM 40.7861 -73.8723 123° Southeast 343 395 16,800 -1,500 Descending FlightAware ADS-B
07:44PM 40.7671 -73.8339 123° Southeast 350 403 16,200 -1,620 Descending FlightAware ADS-B
07:44PM 40.7595 -73.8187 123° Southeast 339 390 16,000 -1,500 Descending FlightAware ADS-B
07:44PM 40.7490 -73.7985 124° Southeast 337 388 15,700 -1,560 Descending FlightAware ADS-B
07:44PM 40.7178 -73.7521 132° Southeast 333 383 14,900 -1,500 Descending FlightAware ADS-B
07:45PM 40.6850 -73.7090 135° Southeast 324 373 14,200 -1,380 Descending FlightAware
07:45PM 40.6722 -73.6992 150° Southeast 319 367 14,000 -1,560 Descending FlightAware ADS-B
07:45PM 40.6455 -73.6808 152° Southeast 319 367 13,400 -1,200 Descending FlightAware ADS-B
07:46PM 40.6121 -73.6573 152° Southeast 314 361 13,100 -660 Descending FlightAware ADS-B
07:46PM 40.6068 -73.6541 155° Southeast 311 358 13,100  Level FlightAware ADS-B
07:46PM 40.5686 -73.6361 160° South 279 321 13,100 -120 Level FlightAware ADS-B
07:47PM 40.5444 -73.6262 163° South 261 300 13,000 -480 Descending FlightAware ADS-B
07:47PM 40.5371 -73.6251 173° South 256 295 12,900 -1,200 Descending FlightAware ADS-B
07:47PM 40.5333 -73.6253 182° South 252 290 12,800 -1,500 Descending FlightAware ADS-B
07:47PM 40.5286 -73.6262 188° South 248 285 12,700 -1,140 Descending FlightAware ADS-B
07:47PM 40.5212 -73.6297 200° South 241 277 12,600 -1,440 Descending FlightAware ADS-B
07:47PM 40.5156 -73.6341 211° Southwest 234 269 12,400 -1,920 Descending FlightAware ADS-B
07:47PM 40.5044 -73.6453 217° Southwest 230 265 12,000 -2,040 Descending FlightAware ADS-B
07:48PM 40.4994 -73.6494 212° Southwest 234 269 11,800 -2,040 Descending FlightAware ADS-B
07:48PM 40.4959 -73.6516 206° Southwest 235 270 11,700 -2,040 Descending FlightAware ADS-B
07:48PM 40.4902 -73.6543 200° South 238 274 11,500 -2,400 Descending FlightAware ADS-B